News / 

AP-UT--SLC-UT 2nd Weather Roundup, UT



Estimated read time: 1-2 minutes

This archived news story is available only for your personal, non-commercial use. Information in the story may be outdated or superseded by additional information. Reading or replaying the story in its archived form does not constitute a republication of the story.

AP-UT--SLC-UT 2nd Weather Roundup

776

ASUS45 KSLC 082110

RWRUT

UTAH REGIONAL WEATHER ROUNDUP

NATIONAL WEATHER SERVICE SALT LAKE CITY UT

200 PM MST SAT MAR 08 2014

UTZ001>011-023>025-082200-

NORTHERN UTAH

CITY SKY/WX TMP DP RH WIND PRES REMARKS

HILL AFB SUNNY 51 16 25 VRB2 30.34F

LOGAN SUNNY 51 27 39 CALM 30.34F

OGDEN SUNNY 53 27 36 SW6 30.34F

PROVO AIRPORT MOSUNNY 48 27 43 CALM 30.37

SALT LAKE CITY MOSUNNY 56 29 35 CALM 30.35F

VERNAL SUNNY 48 27 44 SW7 30.33F

WENDOVER SUNNY 52 28 40 SE8 30.36F

HEBER CITY SUNNY 50 21 32 S3 30.34F

WEST JORDAN SUNNY 52 25 35 CALM 30.36F

$$

UTZ012>022-026-027-082200-

SOUTHERN UTAH

CITY SKY/WX TMP DP RH WIND PRES REMARKS

BRYCE CANYON SUNNY 45 18 34 N9 30.33F

CEDAR CITY SUNNY 52 22 30 N10G17 30.31F

MILFORD SUNNY 52 25 35 NE14G23 30.34F

MOAB/CYNLANDS SUNNY 57 23 26 N8 30.28S

PRICE SUNNY 53 13 20 CALM 30.30F

ST GEORGE CLEAR 66 23 19 N8G18 30.26F

$$

REGIONAL REPORTS COLORADO/ARIZONA

CITY SKY/WX TMP DP RH WIND PRES REMARKS

CRAIG, CO SUNNY 41 26 55 CALM 30.33F

GRAND JUNCTION SUNNY 53 19 26 VRB3 30.28F

RIFLE SUNNY 49 18 29 CALM 30.30F

MONTROSE SUNNY 48 27 44 N6 30.31F

CORTEZ PTSUNNY 52 22 30 SW10 30.23F

PAGE, AZ SUNNY 58 18 21 N5 30.26F

GRAND CANYON SUNNY 49 15 25 E13G23 30.29F

KINGMAN SUNNY 66 13 12 NE21G28 30.19F

FLAGSTAFF SUNNY 49 14 24 N21G31 30.24F

$$

REGIONAL REPORTS NEVADA/IDAHO/WYOMING

CITY SKY/WX TMP DP RH WIND PRES REMARKS

LAS VEGAS, NV SUNNY 69 20 15 NE13G20 30.19F

ELY SUNNY 52 23 32 VRB6 30.33F

ELKO SUNNY 54 27 35 NE5 30.31F

POCATELLO, ID MOSUNNY 52 34 50 W8 30.31F

BURLEY SUNNY 55 27 34 SE7 30.28F

EVANSTON, WY SUNNY 39 22 50 W7 30.36F WCI 34

ROCK SPRINGS SUNNY 44 24 45 W16 30.32F

$$

Delivered by Weather Underground Inc. Sat Mar 8 2014 4:10PM EST

Copyright © The Associated Press. All rights reserved. This material may not be published, broadcast, rewritten or redistributed.

Most recent News stories

The Associated Press

    SIGN UP FOR THE KSL.COM NEWSLETTER

    Catch up on the top news and features from KSL.com, sent weekly.
    By subscribing, you acknowledge and agree to KSL.com's Terms of Use and Privacy Policy.

    KSL Weather Forecast